TimeMDT,TemperatureF,Dew PointF,Humidity,Sea Level PressureIn,VisibilityMPH,Wind Direction,Wind SpeedMPH,Gust SpeedMPH,PrecipitationIn,Events,Conditions,WindDirDegrees,DateUTC
12:53 AM,28.9,12.9,51,30.11,10.0,East,6.9,-,N/A,,Clear,80,2011-10-13 06:53:00
1:53 AM,28.0,12.9,53,30.09,10.0,East,9.2,-,N/A,,Clear,80,2011-10-13 07:53:00
2:53 AM,28.0,12.0,51,30.08,10.0,East,5.8,-,N/A,,Clear,80,2011-10-13 08:53:00
3:53 AM,28.0,9.0,45,30.08,10.0,East,6.9,-,N/A,,Clear,80,2011-10-13 09:53:00
4:53 AM,28.0,10.0,47,30.07,10.0,East,4.6,-,N/A,,Clear,100,2011-10-13 10:53:00
5:53 AM,27.0,10.9,51,30.11,10.0,NE,6.9,-,N/A,,Clear,50,2011-10-13 11:53:00
6:53 AM,27.0,10.9,51,30.14,10.0,Calm,Calm,-,N/A,,Clear,0,2011-10-13 12:53:00
7:53 AM,28.0,12.0,51,30.16,10.0,NE,6.9,-,N/A,,Clear,50,2011-10-13 13:53:00
8:53 AM,36.0,14.0,41,30.13,10.0,NE,5.8,-,N/A,,Clear,50,2011-10-13 14:53:00
9:53 AM,43.0,12.0,28,30.08,10.0,NE,3.5,-,N/A,,Clear,50,2011-10-13 15:53:00
10:53 AM,46.0,12.0,25,30.06,10.0,NNW,9.2,-,N/A,,Clear,340,2011-10-13 16:53:00
11:53 AM,48.9,17.1,28,30.04,10.0,NW,13.8,19.6,N/A,,Clear,320,2011-10-13 17:53:00
12:53 PM,50.0,19.9,31,29.99,10.0,NW,16.1,20.7,N/A,,Clear,310,2011-10-13 18:53:00
1:53 PM,52.0,19.9,28,29.97,10.0,NW,13.8,21.9,N/A,,Clear,320,2011-10-13 19:53:00
2:53 PM,53.1,21.0,29,29.94,10.0,NNW,10.4,24.2,N/A,,Clear,330,2011-10-13 20:53:00
3:33 PM,51.8,19.4,28,30.27,10.0,NW,19.6,26.5,N/A,,Clear,320,2011-10-13 21:33:00
3:53 PM,52.0,21.9,31,29.96,10.0,NW,16.1,24.2,N/A,,Clear,310,2011-10-13 21:53:00
4:53 PM,52.0,21.9,31,29.96,10.0,North,11.5,19.6,N/A,,Clear,360,2011-10-13 22:53:00
5:53 PM,48.9,24.1,38,30.00,10.0,North,9.2,-,N/A,,Clear,360,2011-10-13 23:53:00
6:53 PM,43.0,25.0,49,30.04,10.0,Calm,Calm,-,N/A,,Clear,0,2011-10-14 00:53:00
7:53 PM,43.0,24.1,47,30.04,10.0,North,5.8,-,N/A,,Clear,10,2011-10-14 01:53:00
8:53 PM,44.1,23.0,43,29.99,10.0,North,6.9,-,N/A,,Clear,350,2011-10-14 02:53:00
9:53 PM,39.9,23.0,51,29.98,10.0,NE,3.5,-,N/A,,Clear,50,2011-10-14 03:53:00
10:53 PM,39.0,23.0,53,29.96,10.0,Calm,Calm,-,N/A,,Clear,0,2011-10-14 04:53:00
11:53 PM,33.1,23.0,66,29.99,10.0,East,4.6,-,N/A,,Clear,80,2011-10-14 05:53:00